CAPE
5 4 5 24 11 0 0 20 35 12 27 49 23 41 1 0 0 0 0 0 0 0 0 0 0 0 0 0 0 0 0 0 0 0 0 0 0 0 0 0 0 0 0 0 3
7 7 7 40 43 0 0 0 44 36 70 3 20 55 4 0 0 0 0 0 0 0 0 0 0 0 0 0 0 0 0 0 0 0 0 0 0 0 0 0 0 0 0 0 1
27 44 44 77 64 21 0 0 0 54 44 46 28 73 0 0 4 0 0 0 0 0 0 0 0 0 0 0 0 0 0 0 0 0 0 0 0 0 0 0 0 0 0 0 2
64 58 69 98 108 63 1 0 0 0 138 89 54 54 1 2 1 0 0 0 0 0 0 0 0 0 0 0 0 0 0 0 0 0 0 0 0 0 0 0 0 0 0 0 4
36 58 100 148 128 95 50 2 0 0 0 178 119 34 0 3 0 0 0 0 0 0 0 0 0 0 0 0 0 0 0 0 0 0 0 0 0 0 0 0 0 0 0 0 0
52 34 98 74 154 145 105 21 0 0 0 1 137 10 5 3 0 0 0 0 0 0 0 0 0 0 0 0 0 0 0 0 0 0 0 0 0 0 0 0 0 0 0 0 1
73 31 53 56 20 137 152 21 38 0 0 0 88 1 1 0 0 0 0 0 0 0 0 0 0 0 0 0 0 0 0 0 0 0 0 0 0 0 0 0 0 0 0 0 0
95 66 70 35 24 166 228 76 11 0 0 0 1 0 4 1 0 0 0 0 0 0 0 0 0 0 0 0 0 0 0 0 0 0 0 0 0 0 0 0 0 0 0 0 0
137 79 92 85 69 247 223 92 34 1 3 0 0 1 10 0 1 0 0 0 0 0 0 0 0 0 0 0 0 0 0 0 0 0 0 0 0 0 0 0 0 0 0 0 0
188 133 160 192 205 176 222 120 24 46 22 6 0 2 1 0 0 0 0 0 0 2 0 0 0 0 0 0 1 0 0 0 0 0 0 0 0 0 0 0 0 0 0 0 0
197 292 250 205 162 170 53 216 134 53 12 0 17 7 0 5 4 0 0 0 2 2 7 7 4 0 6 0 0 0 0 0 0 0 0 0 0 0 0 0 0 0 0 0 0
241 235 276 333 241 80 121 91 16 17 4 4 0 22 0 2 1 1 0 2 8 8 20 2 5 7 16 1 0 0 1 0 0 0 0 0 0 0 0 0 0 0 0 0 0
205 205 181 268 250 136 41 1 1 15 9 1 0 43 5 4 1 0 0 11 7 12 14 0 0 24 20 16 4 2 2 3 9 0 0 0 0 0 0 0 0 0 0 0 0
18 50 48 161 58 27 3 6 18 0 2 0 19 5 10 10 1 0 0 9 21 11 18 8 11 18 36 20 12 8 0 0 0 0 1 0 0 0 0 0 0 0 0 0 0
0 42 33 54 8 0 0 0 56 3 0 0 0 0 9 1 0 1 0 0 0 8 8 0 6 22 15 7 16 2 0 0 0 0 0 0 0 0 0 0 0 0 0 0 0
0 29 30 81 10 1 16 21 48 3 0 1 0 4 13 0 0 2 0 1 2 2 12 0 0 24 2 18 41 0 0 0 0 0 0 0 0 0 0 0 0 0 0 0 0
5 21 14 18 1 0 0 64 9 2 0 0 1 6 5 4 0 5 0 2 1 8 4 0 0 0 3 3 0 0 0 0 0 0 0 0 0 0 0 0 0 0 0 0 0
7 24 24 30 23 0 0 1 21 0 0 0 2 6 4 6 2 2 1 6 1 0 8 4 1 0 0 0 0 0 0 0 0 0 0 0 0 0 0 0 0 0 0 0 0
27 16 21 20 25 18 2 0 3 0 0 0 5 2 1 0 0 2 1 1 2 0 0 2 3 0 0 0 0 1 2 0 0 0 0 0 0 0 0 0 0 0 0 0 0
16 24 23 33 26 0 13 0 1 0 0 1 0 0 0 0 2 1 2 0 0 0 0 0 0 0 0 0 0 0 0 0 0 0 0 0 0 0 0 0 0 0 0 0 0
33 24 18 3 0 0 5 0 0 0 0 0 0 0 0 0 0 0 0 0 1 0 0 0 0 0 0 0 0 0 0 0 0 0 0 0 0 0 0 0 0 0 0 0 0
26 6 1 26 0 0 0 0 0 1 2 0 0 0 0 0 1 0 0 0 0 0 0 0 0 0 0 0 0 0 0 0 0 0 0 0 0 0 0 0 0 0 0 0 0
4 0 0 22 0 0 1 0 1 2 0 0 0 0 0 0 0 0 0 0 0 0 0 0 0 0 0 0 0 0 0 0 0 0 0 0 0 0 0 0 0 0 0 0 0
0 4 1 0 0 0 0 1 0 3 0 0 0 1 0 2 0 0 0 0 0 0 0 0 0 0 0 0 0 0 0 0 0 0 0 0 0 0 0 0 0 0 0 0 0
0 0 0 1 0 0 0 0 0 0 0 0 0 0 0 0 0 1 0 0 0 0 0 0 0 0 0 0 0 0 0 0 0 0 0 0 0 0 0 0 0 0 0 0 0
0 0 0 0 0 0 0 0 0 0 0 0 0 0 0 0 0 0 0 0 0 0 0 0 0 0 0 0 0 0 0 0 0 0 0 0 0 0 0 0 0 0 0 0 0
1 0 0 1 0 0 0 0 0 0 0 0 0 0 0 0 0 0 0 0 0 0 0 0 0 0 0 0 0 0 0 0 0 0 0 0 0 0 0 0 0 0 0 0 0
CIN
0 -1 0 0 -10 0 0 -2 -23 -19 -4 0 -1 -3 -14 0 0 0 0 0 0 0 0 0 0 0 0 0 0 0 0 0 0 0 0 0 0 0 0 0 0 0 0 0 -1
0 -1 0 -2 0 0 0 0 -1 -28 0 -42 -13 0 -32 0 0 0 0 0 0 0 0 0 0 0 0 0 0 0 0 0 0 0 0 0 0 0 0 0 0 0 0 0 -1
-1 0 -1 0 -1 -16 0 0 -3 -2 -2 -38 -23 0 -4 0 -1 0 0 0 0 0 0 0 0 0 0 0 0 0 0 0 0 0 0 0 0 0 0 0 0 0 0 0 0
0 -1 -1 0 -2 0 -5 0 0 0 -4 -5 -4 -1 -7 -3 0 0 0 0 0 0 0 0 0 0 0 0 0 0 0 0 0 0 0 0 0 0 0 0 0 0 0 0 0
-2 -3 -1 0 -2 -1 -6 -26 0 0 0 -9 0 -21 0 -4 -1 0 0 0 0 0 0 0 0 0 0 0 0 0 0 0 0 0 0 0 0 0 0 0 0 0 0 0 0
-6 -10 -3 -15 -2 -1 -2 -61 0 0 0 -1 -2 -45 -17 -1 0 0 0 0 0 0 0 0 0 0 0 0 0 0 0 0 0 0 0 0 0 0 0 0 0 0 0 0 0
-8 -20 -20 -20 -37 -1 -2 -33 -28 0 0 0 -13 -31 -12 0 0 0 0 0 0 0 0 0 0 0 0 0 0 0 0 0 0 0 0 0 0 0 0 0 0 0 0 0 0
-10 -19 -18 -41 -47 -6 0 -16 -43 -7 0 0 0 0 0 -5 0 0 0 0 0 0 0 0 0 0 0 0 0 0 0 0 0 0 0 0 0 0 0 0 0 0 0 0 0
-6 -15 -19 -37 -41 -2 0 -4 -13 0 0 0 0 0 -1 0 -5 0 0 0 0 0 0 0 0 0 0 0 0 0 0 0 0 0 0 0 0 0 0 0 0 0 0 0 0
-4 -17 -22 -22 -30 -19 0 0 -8 0 0 -1 0 -2 0 -1 -1 0 0 0 0 -1 0 0 -11 0 0 0 -1 0 0 0 0 0 0 0 0 0 0 0 0 0 0 0 0
-7 -8 -30 -30 -33 -22 -7 0 0 -1 0 0 0 -7 0 -2 -3 0 -2 0 -1 -1 0 -5 -1 0 -1 0 0 0 0 0 0 0 0 0 0 0 0 0 0 0 0 0 0
-6 -8 -14 -8 -10 -37 -3 -1 -1 -8 -1 -3 0 -3 0 -10 0 -4 -7 -2 0 0 -1 0 0 -2 -1 -1 -11 -3 -1 -1 -1 0 0 0 0 0 0 0 0 0 0 0 0
0 -1 -2 -1 -2 -3 -3 -13 -8 -24 -2 -1 0 0 -3 -3 0 0 0 -4 0 0 -1 0 0 -2 -2 -1 -5 -16 -5 -1 -3 0 0 0 0 0 0 0 0 0 0 0 0
-16 -14 -27 -2 -5 -31 -2 0 -27 -106 -1 -1 0 -1 -1 -2 0 0 -6 -3 -1 0 0 -1 -2 -1 0 0 -1 0 0 0 0 0 -1 0 0 0 0 0 0 0 0 0 0
-9 -38 -25 -20 -2 0 0 0 -1 -4 0 0 0 -2 -1 -2 0 0 -2 -3 0 -1 -2 -2 -14 -1 -1 -1 -1 -19 0 0 0 0 0 0 0 0 0 0 0 0 0 0 0
0 -44 -20 -1 -1 -1 -64 -14 -15 -7 0 0 0 -2 -1 0 -1 0 0 -17 -2 -1 -3 -19 -7 -3 -1 -1 -2 0 0 0 0 0 0 0 0 0 0 0 0 0 0 0 0
0 -26 -7 0 0 0 0 -2 -45 -15 0 0 0 0 0 0 -2 0 0 0 -1 -1 0 0 0 0 -16 -25 0 0 -2 0 0 0 0 0 0 0 0 0 0 0 0 0 0
0 0 -2 0 -1 0 0 -1 -5 -1 0 0 0 0 0 0 0 0 0 0 -1 0 -1 -3 -1 0 0 0 0 0 -4 -10 -6 0 0 0 0 0 0 0 0 0 0 0 0
0 0 -1 -1 -1 -11 -12 0 -3 0 0 0 0 0 0 0 0 0 0 -1 -1 -1 0 -3 -1 0 0 0 0 0 -19 0 0 0 0 0 0 0 0 0 0 0 0 0 0
-1 -1 0 -5 -1 0 -8 0 0 0 0 0 0 0 0 0 -1 0 -2 -1 -1 -1 0 0 0 0 0 0 0 0 0 0 0 0 0 0 0 0 0 0 0 0 0 0 0
0 0 -6 -3 0 0 -6 0 -3 0 0 0 0 0 0 0 -1 0 0 -1 -2 0 0 0 0 0 0 0 0 0 0 0 0 0 0 0 0 0 0 0 0 0 0 0 0
-1 -4 -2 -2 0 0 0 -1 0 0 -2 0 0 0 0 0 0 -4 0 0 -9 0 0 0 0 0 0 0 0 0 0 0 0 0 0 0 0 0 0 0 0 0 0 0 0
-12 -1 0 -6 0 0 -4 0 0 0 0 0 0 0 0 -1 0 -1 0 0 0 0 0 0 0 0 0 0 0 0 0 -1 0 0 0 0 0 0 0 0 0 0 0 0 0
-5 -2 0 0 0 0 0 0 0 0 -1 0 0 -3 0 -1 0 0 0 0 0 0 0 0 0 0 0 0 0 0 0 0 0 0 0 0 0 0 0 0 0 0 0 0 0
0 0 0 -27 0 0 0 0 0 0 0 0 0 -2 0 0 0 0 0 0 0 0 0 0 0 0 0 0 0 0 0 0 0 0 0 0 0 0 0 0 0 0 0 0 0
0 0 0 0 0 0 0 0 0 0 0 0 0 0 0 0 0 0 0 0 0 0 0 0 0 0 0 0 0 0 0 0 0 0 0 0 0 0 0 0 0 0 0 0 0
0 0 0 0 0 0 0 0 0 0 0 0 0 0 0 0 0 0 0 0 0 0 0 0 0 0 0 0 0 0 0 0 0 0 0 0 0 0 0 0 0 0 0 0 0
Wind_Speed
38 40 41 41 41 41 38 39 39 39 37 36 32 29 26 26 25 27 34 27 24 19 19 19 20 22 20 21 23 23 25 26 23 23 19 14 15 15 16 15 14 12 15 14 8
38 39 40 42 42 42 42 39 41 43 39 38 37 29 26 25 30 38 27 24 22 19 22 25 25 21 23 23 21 23 22 26 22 20 17 16 18 17 18 18 18 12 12 8 10
38 38 40 41 44 43 43 45 41 41 47 46 47 34 26 26 36 42 30 26 25 21 24 24 21 23 26 24 25 27 34 23 19 18 18 17 18 19 22 23 20 16 7 5 8
36 36 38 40 43 45 46 46 45 40 43 46 37 32 29 29 45 26 25 27 25 23 23 23 25 27 26 27 26 31 35 26 18 18 19 18 19 21 24 22 18 14 4 5 8
35 35 36 39 43 48 49 48 45 45 40 38 39 27 32 40 46 21 23 26 24 26 26 24 27 27 30 28 26 30 27 24 19 18 18 19 21 24 26 24 18 12 4 4 7
33 35 37 38 43 48 50 50 46 46 44 37 34 31 37 52 34 28 23 26 27 27 27 25 26 25 29 28 29 27 25 27 23 23 22 26 24 22 21 20 15 9 5 2 6
33 36 39 39 42 47 49 51 47 43 45 40 39 33 44 49 33 30 26 27 28 28 28 25 23 24 23 28 26 24 26 26 26 28 28 28 34 29 27 18 17 14 8 1 4
38 36 38 38 39 44 47 48 47 43 49 47 32 34 49 40 31 31 27 26 26 26 27 23 20 21 24 23 26 30 31 29 28 27 24 22 38 30 22 23 22 15 11 8 3
39 37 33 33 35 38 44 45 42 41 46 49 41 36 47 34 41 32 29 27 25 23 22 21 22 26 24 27 30 31 32 34 30 24 26 23 33 34 25 25 25 20 15 11 9
36 35 32 29 31 33 41 42 42 39 41 46 50 39 34 48 38 32 32 27 25 23 24 26 29 34 34 35 37 34 31 33 33 22 26 32 38 32 20 24 26 26 18 15 11
33 32 32 30 29 32 35 35 44 44 47 57 36 43 37 30 28 32 30 29 29 31 38 32 40 46 41 36 32 33 34 37 31 25 27 32 39 37 40 24 27 26 26 17 14
29 28 32 32 31 30 36 45 53 35 53 57 59 43 33 32 34 35 27 33 38 43 36 39 51 41 35 35 34 31 33 36 29 25 29 35 39 32 35 35 27 27 25 23 17
24 24 29 32 32 35 42 51 46 38 44 59 55 50 35 39 40 37 35 34 41 42 44 45 41 34 38 35 37 37 36 34 32 26 32 39 49 45 36 34 29 28 17 12 12
24 25 29 29 32 40 50 42 42 29 48 50 52 45 39 37 39 34 33 29 35 44 39 41 36 38 37 38 34 40 31 28 30 32 35 28 42 39 31 28 20 18 17 18 14
27 29 31 32 31 43 41 38 38 30 57 39 42 35 39 41 36 40 34 30 40 37 36 39 38 38 42 40 32 35 25 30 30 34 38 38 37 37 32 36 29 18 19 17 19
29 31 33 39 41 37 32 35 38 56 61 39 39 41 43 37 38 37 35 31 28 30 30 30 25 29 36 33 28 21 23 25 26 31 43 42 38 42 39 34 30 27 27 17 16
29 33 37 35 44 39 33 38 59 66 41 42 43 43 43 45 39 42 38 38 41 43 44 34 32 29 24 25 23 30 32 36 37 37 43 33 35 44 33 29 27 28 27 20 15
30 32 34 39 38 28 37 54 59 60 49 32 42 49 43 42 40 43 39 41 37 36 36 42 46 37 30 32 35 32 30 35 39 40 40 33 40 37 29 27 26 24 24 22 21
26 31 36 35 31 34 37 65 48 46 50 43 44 55 47 44 38 43 44 45 39 35 41 43 38 28 27 25 24 31 38 30 30 30 36 37 40 41 38 32 31 31 27 24 21
28 32 37 28 28 31 46 52 40 42 36 48 47 47 48 49 44 42 45 43 38 36 26 29 36 28 26 20 25 28 22 31 32 41 45 43 45 42 30 29 27 22 23 21 21
26 31 25 22 23 38 51 48 43 45 41 44 47 45 49 48 43 49 46 36 38 35 30 26 30 32 26 35 33 27 31 30 29 34 40 45 45 31 30 29 27 20 21 22 22
25 32 23 23 36 40 49 43 39 46 44 44 46 46 50 47 42 38 44 36 36 35 35 24 25 36 34 24 26 28 29 26 34 37 38 40 51 23 20 18 16 17 18 18 19
28 27 22 29 44 47 44 47 42 45 48 45 51 44 42 46 36 40 39 30 34 37 35 27 26 30 33 32 30 32 28 28 27 27 36 40 50 25 22 23 23 21 20 22 24
25 31 29 33 37 38 44 46 44 45 39 40 45 41 45 45 35 35 38 31 31 37 32 27 28 32 39 36 26 31 29 28 27 34 38 37 43 27 21 25 26 25 26 28 31
24 30 30 36 42 45 40 42 47 46 39 36 42 45 46 43 38 38 34 31 33 35 33 33 32 30 27 27 27 31 31 30 33 33 36 33 36 39 38 38 35 36 39 39 40
27 29 31 33 30 35 45 47 46 42 40 45 47 46 43 44 46 44 38 36 34 34 35 33 30 27 29 23 22 26 26 28 28 29 30 30 35 40 42 36 37 38 39 38 37
18 20 28 31 32 32 40 42 48 41 43 41 42 43 43 43 32 32 31 30 29 32 35 30 30 30 33 25 25 36 32 29 29 27 27 33 29 28 31 31 34 35 35 37 38
Wind_Direction
259 257 254 252 249 248 248 246 243 241 242 240 242 244 243 244 247 247 247 255 257 264 256 252 260 263 262 261 260 261 261 260 265 270 283 295 284 293 298 304 315 328 317 333 83
260 257 254 250 247 246 244 244 244 242 240 238 241 245 241 241 244 245 252 253 254 256 252 246 247 257 255 256 260 259 263 262 272 274 281 290 278 285 282 288 290 321 331 30 92
259 256 254 250 245 243 243 242 244 244 238 240 238 241 241 238 245 245 245 249 248 252 254 248 248 253 251 255 254 255 229 264 272 273 277 285 283 284 276 272 287 300 339 40 103
258 255 254 249 244 241 241 243 242 243 241 239 242 236 235 234 237 250 238 241 242 246 248 245 245 246 252 252 254 253 242 260 267 274 276 279 285 281 274 276 305 316 27 78 117
256 253 252 248 244 240 239 240 242 240 243 242 236 228 234 239 236 253 247 237 237 239 241 243 242 245 245 253 255 253 258 258 267 271 280 282 283 277 275 278 297 317 13 93 121
253 251 248 247 243 239 237 238 241 240 240 247 230 228 240 238 244 245 249 236 236 234 239 242 247 249 250 252 250 256 259 256 264 272 276 275 278 282 283 287 295 305 320 65 131
250 247 244 245 244 238 236 235 238 240 236 235 233 229 240 239 243 241 241 235 236 235 236 242 253 246 255 250 257 259 254 260 260 265 270 271 264 270 275 290 288 289 296 313 142
243 244 243 244 245 239 233 234 238 239 233 229 244 225 239 237 242 233 232 231 237 236 240 239 251 249 251 256 254 249 255 257 264 266 272 280 250 264 280 277 277 284 285 284 215
241 241 243 243 244 238 231 232 236 235 233 230 250 233 233 233 231 224 224 228 227 233 237 239 241 245 245 245 245 246 252 254 264 267 265 272 262 265 278 276 274 276 278 280 279
240 239 241 241 241 237 231 230 232 235 232 226 235 224 231 224 222 222 226 222 222 224 231 234 239 238 239 236 242 247 250 258 257 269 269 265 261 268 286 277 273 271 275 275 276
237 237 238 238 237 235 229 229 225 230 228 223 249 224 220 216 212 220 219 215 220 226 228 231 233 232 236 241 250 251 251 255 262 268 272 269 265 267 254 280 274 272 271 274 272
235 236 235 236 236 235 230 227 222 234 226 225 235 224 220 202 217 213 204 220 220 224 225 232 233 236 241 242 244 251 250 253 265 269 271 269 267 275 271 268 272 272 272 273 273
233 236 234 234 236 234 230 226 224 235 230 227 231 227 207 208 219 208 204 222 222 224 226 231 238 237 237 239 240 247 249 253 259 270 271 271 260 262 271 269 272 272 269 254 256
234 236 233 231 233 231 226 229 227 238 230 233 229 221 212 213 221 204 208 216 225 224 227 237 239 234 237 238 240 244 253 258 261 266 269 274 267 266 272 275 268 261 256 259 246
236 235 232 226 234 225 225 228 224 234 225 227 218 205 207 207 206 210 208 225 221 222 227 232 229 233 234 238 241 249 253 258 264 264 268 265 271 269 272 270 281 279 269 253 246
237 234 232 229 231 229 230 228 220 223 222 223 216 204 200 205 202 196 214 226 219 216 230 239 242 239 241 240 241 239 253 261 267 267 265 264 266 268 269 275 281 286 284 273 247
240 234 230 230 227 231 230 221 218 219 222 227 214 200 203 196 204 199 205 209 213 215 224 233 234 242 237 232 231 245 244 254 257 258 262 270 266 267 272 279 287 289 293 293 278
239 236 236 232 232 232 225 217 222 224 222 229 209 197 208 196 204 203 205 212 219 225 219 226 234 231 230 237 238 238 241 248 253 258 265 266 265 273 279 286 290 291 296 297 297
240 239 235 234 232 229 223 218 229 216 214 211 198 198 209 205 209 207 210 212 220 213 225 227 236 233 229 240 228 241 243 256 259 266 267 266 270 274 277 284 287 289 289 288 300
238 237 235 236 229 227 224 228 235 219 209 201 203 204 204 207 207 206 210 215 220 219 226 229 233 235 234 231 248 241 239 251 258 259 264 266 266 269 279 284 297 295 296 296 293
239 234 241 229 236 225 222 231 236 224 208 198 205 208 207 200 206 204 209 217 214 211 221 210 235 236 232 240 237 239 244 253 260 262 264 267 267 283 283 288 290 302 303 298 290
239 231 242 226 228 226 227 235 241 224 213 214 215 210 204 200 207 211 209 224 206 207 212 225 239 232 235 252 249 242 245 246 255 260 263 270 265 286 294 304 308 309 310 309 301
237 237 249 230 223 230 234 230 233 210 203 215 211 214 206 202 209 212 206 224 206 203 205 216 234 230 241 252 247 243 243 245 259 272 263 265 269 288 280 290 298 301 304 301 297
239 230 235 229 234 230 227 230 225 209 208 209 207 208 200 203 211 210 204 216 208 209 219 227 232 236 239 247 236 242 239 246 250 261 264 262 271 280 290 293 292 294 298 298 293
241 234 230 223 232 231 232 225 214 203 215 208 205 203 195 203 203 211 206 211 219 216 222 228 239 241 253 249 245 248 245 244 248 251 262 266 270 276 281 288 287 288 289 290 291
237 232 230 231 238 238 227 223 207 203 201 207 205 200 199 205 212 193 199 213 212 214 220 228 239 235 248 249 252 253 248 241 242 250 259 265 274 279 280 284 289 286 286 288 291
261 258 236 233 234 238 225 218 205 203 211 214 192 191 202 211 218 209 210 214 214 209 218 226 232 233 244 249 259 262 253 249 252 251 249 265 265 276 284 291 289 290 289 289 291